CAPE
2994 2717 2754 2222 1564 992 187 0 0 0 0 0 0 0 0 0 0 0 0 0 0 0
3172 3210 2468 1991 970 242 57 0 0 0 0 0 0 0 0 0 0 0 0 0 0 0
2864 2558 2051 1082 293 80 7 0 0 0 0 0 0 0 0 0 0 0 0 0 0 0
2001 1891 1397 567 309 30 0 0 0 0 0 0 0 0 0 0 0 0 0 0 0 0
1892 1422 517 217 11 0 0 0 0 0 0 0 0 0 0 0 0 0 0 0 0 0
703 398 179 29 0 0 0 0 0 0 0 0 0 0 0 0 0 0 0 0 0 0
478 178 62 3 0 0 0 0 0 0 0 0 0 0 0 0 0 0 0 0 0 0
141 89 14 0 0 0 0 0 0 0 0 0 0 0 0 0 0 0 0 0 0 0
132 16 3 0 0 0 0 0 0 0 0 0 0 0 0 0 0 0 0 0 0 0
10 3 5 0 0 2 2 2 0 0 0 2 0 0 0 0 0 0 0 0 0 0
9 7 8 4 2 3 2 1 0 0 0 0 0 0 0 0 0 0 0 0 0 1
2 1 0 0 0 0 0 0 0 0 0 0 0 0 0 0 0 0 0 0 0 1
5 3 5 3 3 3 4 1 2 0 0 0 0 0 0 0 0 0 0 0 0 0
4 2 0 1 1 0 1 0 0 0 0 0 0 0 0 0 0 0 0 0 0 0
CIN
-91 -59 -65 -123 -166 -204 -426 -18 -0 -0 -0 -0 -0 -0 -0 -0 -0 -0 -0 -0 -0 -0
-27 -17 -75 -113 -247 -396 -480 -0 -0 -0 -0 -0 -0 -0 -0 -0 -0 -0 -0 -0 -0 -0
-64 -40 -78 -207 -369 -487 -271 -0 -0 -0 -0 -0 -0 -0 -0 -0 -0 -0 -0 -0 -0 -0
-73 -66 -119 -262 -286 -435 -0 -0 -0 -0 -0 -0 -0 -0 -0 -0 -0 -0 -0 -0 -0 -0
-17 -73 -281 -360 -535 -0 -0 -0 -0 -0 -0 -0 -0 -0 -0 -0 -0 -0 -0 -0 -0 -0
-158 -232 -367 -464 -0 -0 -0 -0 -0 -0 -0 -0 -0 -0 -0 -0 -0 -0 -0 -0 -0 -0
-172 -299 -358 -143 -0 -0 -0 -0 -0 -0 -0 -0 -0 -0 -0 -0 -0 -0 -0 -0 -0 -0
-240 -225 -229 -0 -0 -0 -0 -0 -0 -0 -0 -0 -0 -0 -0 -0 -0 -0 -0 -0 -0 -0
-152 -262 -1 -0 -0 -0 -0 -0 -0 -0 -0 -0 -0 -0 -0 -0 -0 -0 -0 -0 -0 -0
-152 -1 -1 -1 -0 -1 -2 -1 -0 -0 -0 -1 -0 -0 -0 -0 -0 -0 -0 -0 -0 -0
-2 -1 -1 -1 -3 -5 -4 -0 -0 -0 -0 -0 -0 -0 -0 -0 -0 -0 -0 -0 -0 -0
-0 -1 -0 -0 -0 -0 -0 -0 -0 -0 -0 -0 -0 -0 -0 -0 -0 -0 -0 -0 -0 -1
-0 -0 -0 -0 -0 -0 -0 -0 -0 -0 -0 -0 -0 -0 -0 -0 -0 -0 -0 -0 -0 -0
-0 -0 -0 -0 -0 -0 -0 -0 -0 -0 -0 -0 -0 -0 -0 -0 -0 -0 -0 -0 -0 -0
Wind_Speed
17 15 12 12 10 10 9 8 9 10 9 10 11 12 13 13 15 15 16 18 21 22
18 15 15 12 12 12 9 9 6 7 9 10 11 11 11 13 15 15 16 17 20 23
17 17 15 14 13 11 10 8 7 7 9 9 9 10 11 13 14 16 18 20 22 24
19 18 16 15 14 11 10 8 7 6 7 7 8 10 12 15 15 16 19 20 23 25
19 17 17 16 14 11 9 8 6 6 6 6 8 9 9 15 16 18 20 23 24 26
19 18 16 14 12 10 8 6 5 6 5 6 8 9 12 15 18 20 21 23 25 28
18 15 15 12 11 9 7 7 6 7 7 8 9 11 10 14 17 21 23 24 26 28
14 13 11 11 10 8 7 7 6 7 9 11 12 13 14 17 20 23 25 26 27 30
13 10 10 8 9 8 8 9 9 9 10 11 13 17 19 22 24 26 26 28 29 30
12 11 11 10 9 11 11 11 12 10 13 13 17 20 21 22 28 31 30 30 30 29
13 12 11 11 11 12 11 10 10 12 16 17 20 22 23 25 24 28 31 32 30 30
13 12 10 10 11 11 11 10 11 17 19 20 23 24 23 24 31 28 29 32 29 27
10 9 10 11 12 12 13 14 16 19 20 22 23 23 24 27 32 31 31 29 27 27
9 9 10 11 12 11 13 17 18 20 19 20 18 22 23 25 30 28 30 30 29 27
Wind_Direction
248 241 236 242 256 268 282 293 306 316 328 332 335 339 341 346 347 351 353 350 341 335
253 248 251 248 258 272 280 293 299 312 320 325 329 336 339 340 338 342 343 342 338 333
254 254 256 256 258 265 280 285 287 296 306 321 329 329 331 332 335 336 331 330 331 331
256 253 252 260 260 267 275 280 285 289 307 313 321 326 328 324 327 331 322 325 324 326
257 249 256 259 257 260 262 267 273 288 307 314 318 324 328 318 320 319 320 321 326 328
258 258 255 251 251 253 249 251 272 290 303 309 318 324 327 318 310 313 321 324 326 326
252 251 250 245 246 243 245 258 275 292 298 311 314 321 333 323 319 316 319 324 325 327
248 245 239 244 237 237 250 270 281 292 300 305 312 315 320 317 316 316 318 323 324 320
247 239 238 229 230 242 260 272 285 293 299 304 310 307 312 310 309 311 317 319 323 324
254 248 244 243 243 260 269 280 286 292 295 300 307 312 316 318 309 305 309 315 321 326
256 249 245 245 256 270 276 287 291 295 293 301 306 312 320 314 321 315 309 308 319 321
265 255 254 262 273 284 284 287 290 289 292 302 304 311 321 320 311 319 317 310 318 321
259 261 263 274 281 289 296 288 290 291 300 303 306 314 319 318 312 315 314 315 320 328
275 264 275 289 292 292 300 289 296 300 310 311 320 316 315 320 316 322 317 317 317 320